• In Kazakhstan
  • List of Countries
  • For 7 days
  • Water Temperature
  • Weather Map
  • News
  • Weather Widgets
  • user-avatar
    Login

    Hourly Weather Prutz

    Today, 11 November, Monday

    Time Temperature Precipitation Wind Pressure Humidity
    00:00 -8°C° 0 mm 3 mps 627 mmHg 61%
    01:00 -8°C° 0 mm 3 mps 628 mmHg 62%
    02:00 -8°C° 0 mm 3 mps 628 mmHg 62%
    03:00 -8°C° 0 mm 3 mps 627 mmHg 62%
    04:00 -8°C° 0 mm 3 mps 627 mmHg 62%
    05:00 -8°C° 0 mm 3 mps 627 mmHg 63%
    06:00 -8°C° 0 mm 3 mps 627 mmHg 65%
    07:00 -8°C° 0 mm 3 mps 627 mmHg 66%
    08:00 -6°C° 0 mm 3 mps 628 mmHg 69%
    09:00 -4°C° 0 mm 3 mps 628 mmHg 72%
    10:00 -1°C° 0 mm 3 mps 628 mmHg 75%
    11:00 0°C° 0 mm 3 mps 628 mmHg 78%
    12:00 +1°C° 0 mm 3 mps 627 mmHg 81%
    13:00 +1°C° 0 mm 4 mps 627 mmHg 83%
    14:00 +1°C° 0 mm 3 mps 627 mmHg 84%
    15:00 0°C° 0 mm 3 mps 626 mmHg 86%
    16:00 0°C° 0 mm 3 mps 625 mmHg 88%
    17:00 -1°C° 0.1 mm 3 mps 625 mmHg 88%
    18:00 -2°C° 0.1 mm 3 mps 625 mmHg 89%
    19:00 -4°C° 0.1 mm 3 mps 625 mmHg 89%
    20:00 -3°C° 0.1 mm 2 mps 625 mmHg 90%
    21:00 -2°C° 0.1 mm 2 mps 625 mmHg 91%
    22:00 -2°C° 0.1 mm 2 mps 625 mmHg 92%
    23:00 0°C° 0.4 mm 1 mps 625 mmHg 93%

    Tomorrow, 12 November, Tuesday

    Time Temperature Precipitation Wind Pressure Humidity
    00:00 0°C° 0.4 mm 1 mps 625 mmHg 94%
    01:00 0°C° 0.4 mm 1 mps 625 mmHg 95%
    02:00 0°C° 0.9 mm 1 mps 625 mmHg 96%
    03:00 0°C° 0.9 mm 1 mps 625 mmHg 97%
    04:00 0°C° 0.9 mm 1 mps 625 mmHg 97%
    05:00 -1°C° 0.6 mm 1 mps 625 mmHg 97%
    06:00 -1°C° 0.6 mm 1 mps 625 mmHg 97%
    07:00 -1°C° 0.6 mm 1 mps 624 mmHg 97%
    08:00 -1°C° 0.3 mm 1 mps 624 mmHg 96%
    09:00 0°C° 0.3 mm 1 mps 624 mmHg 94%
    10:00 0°C° 0.3 mm 1 mps 624 mmHg 93%
    11:00 0°C° 0.2 mm 1 mps 624 mmHg 93%
    12:00 -1°C° 0.2 mm 2 mps 624 mmHg 93%
    13:00 -1°C° 0.2 mm 2 mps 623 mmHg 92%
    14:00 -1°C° 0.3 mm 2 mps 623 mmHg 93%
    15:00 -2°C° 0.3 mm 2 mps 622 mmHg 94%
    16:00 -2°C° 0.3 mm 2 mps 622 mmHg 95%
    17:00 -3°C° 0.6 mm 2 mps 622 mmHg 96%
    18:00 -3°C° 0.6 mm 2 mps 621 mmHg 96%
    19:00 -5°C° 0.6 mm 3 mps 621 mmHg 96%
    20:00 -4°C° 2.5 mm 2 mps 621 mmHg 96%
    21:00 -4°C° 2.5 mm 2 mps 621 mmHg 96%
    22:00 -5°C° 2.5 mm 2 mps 621 mmHg 96%
    23:00 -5°C° 2.4 mm 2 mps 621 mmHg 96%

    Day after tomorrow, 13 November, Wednesday

    Time Temperature Precipitation Wind Pressure Humidity
    00:00 -3°C° 2.4 mm 1 mps 621 mmHg 96%
    01:00 -3°C° 2.4 mm 1 mps 621 mmHg 97%
    02:00 -3°C° 0.9 mm 1 mps 620 mmHg 97%
    03:00 -3°C° 0.9 mm 1 mps 620 mmHg 97%
    04:00 -4°C° 0.9 mm 1 mps 620 mmHg 97%
    05:00 -4°C° 0.6 mm 1 mps 620 mmHg 97%
    06:00 -4°C° 0.6 mm 1 mps 619 mmHg 97%
    07:00 -4°C° 0.6 mm 1 mps 619 mmHg 97%
    08:00 -3°C° 0.5 mm 1 mps 619 mmHg 96%
    09:00 -3°C° 0.5 mm 1 mps 620 mmHg 95%
    10:00 -2°C° 0.5 mm 1 mps 620 mmHg 95%
    11:00 -4°C° 0.4 mm 2 mps 620 mmHg 94%
    12:00 -3°C° 0.4 mm 2 mps 620 mmHg 93%
    13:00 -3°C° 0.4 mm 2 mps 620 mmHg 93%
    14:00 -3°C° 0.2 mm 2 mps 620 mmHg 94%
    15:00 -4°C° 0.2 mm 2 mps 620 mmHg 95%
    16:00 -2°C° 0.2 mm 1 mps 621 mmHg 96%
    17:00 -4°C° 0 mm 1 mps 620 mmHg 95%
    18:00 -7°C° 0 mm 1 mps 620 mmHg 95%
    19:00 -8°C° 0 mm 1 mps 619 mmHg 94%
    20:00 -8°C° 0 mm 1 mps 620 mmHg 88%
    21:00 -8°C° 0 mm 1 mps 620 mmHg 82%
    22:00 -9°C° 0 mm 2 mps 620 mmHg 76%
    23:00 -9°C° 0 mm 2 mps 620 mmHg 75%

    14 November, Thursday

    Time Temperature Precipitation Wind Pressure Humidity
    00:00 -8°C° 0 mm 2 mps 620 mmHg 74%
    01:00 -8°C° 0 mm 2 mps 620 mmHg 73%
    02:00 -8°C° 0 mm 2 mps 620 mmHg 75%
    03:00 -8°C° 0 mm 3 mps 620 mmHg 77%
    04:00 -8°C° 0 mm 3 mps 620 mmHg 80%
    05:00 -8°C° 0 mm 3 mps 620 mmHg 82%
    06:00 -7°C° 0 mm 3 mps 620 mmHg 84%
    07:00 -7°C° 0 mm 3 mps 621 mmHg 87%
    08:00 -6°C° 0 mm 3 mps 621 mmHg 87%
    09:00 -5°C° 0 mm 3 mps 621 mmHg 88%
    10:00 -2°C° 0 mm 3 mps 622 mmHg 88%
    11:00 -2°C° 0 mm 3 mps 622 mmHg 88%
    12:00 -1°C° 0 mm 3 mps 622 mmHg 88%
    13:00 0°C° 0 mm 3 mps 622 mmHg 87%
    14:00 -1°C° 0 mm 3 mps 622 mmHg 88%
    15:00 -2°C° 0 mm 3 mps 621 mmHg 89%
    16:00 -2°C° 0 mm 3 mps 621 mmHg 90%
    17:00 -4°C° 0 mm 3 mps 620 mmHg 90%
    18:00 -5°C° 0 mm 4 mps 620 mmHg 90%
    19:00 -7°C° 0 mm 4 mps 620 mmHg 90%
    20:00 -7°C° 0 mm 4 mps 619 mmHg 90%
    21:00 -7°C° 0 mm 4 mps 619 mmHg 90%
    22:00 -6°C° 0 mm 5 mps 619 mmHg 90%
    23:00 -6°C° 0 mm 5 mps 619 mmHg 90%

    15 November, Friday

    Time Temperature Precipitation Wind Pressure Humidity
    00:00 -6°C° 0 mm 5 mps 619 mmHg 90%
    01:00 -6°C° 0 mm 5 mps 618 mmHg 89%
    02:00 -4°C° 0.3 mm 4 mps 619 mmHg 89%
    03:00 -4°C° 0.3 mm 4 mps 619 mmHg 90%
    04:00 -3°C° 0.3 mm 4 mps 619 mmHg 90%
    05:00 -3°C° 0.9 mm 4 mps 620 mmHg 91%
    06:00 -3°C° 0.9 mm 4 mps 620 mmHg 92%
    07:00 -1°C° 0.9 mm 3 mps 620 mmHg 92%
    08:00 -1°C° 0.7 mm 3 mps 621 mmHg 93%
    09:00 0°C° 0.7 mm 3 mps 621 mmHg 94%
    10:00 +1°C° 0.7 mm 2 mps 622 mmHg 95%
    11:00 +1°C° 2 mm 2 mps 622 mmHg 96%
    12:00 +2°C° 2 mm 2 mps 622 mmHg 97%
    13:00 +2°C° 2 mm 2 mps 622 mmHg 97%
    14:00 +1°C° 1.9 mm 2 mps 622 mmHg 97%
    15:00 +1°C° 1.9 mm 2 mps 622 mmHg 97%
    16:00 +2°C° 1.9 mm 1 mps 622 mmHg 97%
    17:00 +2°C° 1.9 mm 1 mps 622 mmHg 98%
    18:00 +2°C° 1.9 mm 1 mps 622 mmHg 98%
    19:00 +1°C° 1.9 mm 1 mps 622 mmHg 98%
    20:00 +1°C° 2.6 mm 1 mps 622 mmHg 97%
    21:00 +1°C° 2.6 mm 1 mps 622 mmHg 97%
    22:00 +1°C° 2.6 mm 1 mps 623 mmHg 97%
    23:00 +1°C° 1.4 mm 1 mps 623 mmHg 97%

    16 November, Saturday

    Time Temperature Precipitation Wind Pressure Humidity
    00:00 -1°C° 1.4 mm 2 mps 623 mmHg 97%
    01:00 -2°C° 1.4 mm 2 mps 623 mmHg 96%
    02:00 -3°C° 0.4 mm 2 mps 623 mmHg 95%
    03:00 -4°C° 0.4 mm 2 mps 623 mmHg 93%
    04:00 -5°C° 0.4 mm 2 mps 623 mmHg 91%
    05:00 -4°C° 0.2 mm 2 mps 624 mmHg 92%
    06:00 -5°C° 0.2 mm 3 mps 624 mmHg 92%
    07:00 -5°C° 0.2 mm 3 mps 625 mmHg 93%
    08:00 -4°C° 0 mm 3 mps 626 mmHg 92%
    09:00 -2°C° 0 mm 3 mps 627 mmHg 91%
    10:00 -2°C° 0 mm 3 mps 628 mmHg 90%
    11:00 -1°C° 0 mm 3 mps 628 mmHg 90%
    12:00 +1°C° 0 mm 2 mps 628 mmHg 91%
    13:00 +1°C° 0 mm 2 mps 628 mmHg 91%
    14:00 +1°C° 0 mm 2 mps 628 mmHg 90%
    15:00 -1°C° 0 mm 2 mps 628 mmHg 90%
    16:00 -2°C° 0 mm 2 mps 627 mmHg 90%
    17:00 -2°C° 0.1 mm 2 mps 627 mmHg 90%
    18:00 -3°C° 0.1 mm 2 mps 627 mmHg 90%
    19:00 -3°C° 0.1 mm 2 mps 627 mmHg 89%
    20:00 -3°C° 0.6 mm 2 mps 626 mmHg 91%
    21:00 -3°C° 0.6 mm 2 mps 626 mmHg 93%
    22:00 -1°C° 0.6 mm 1 mps 625 mmHg 94%
    23:00 -1°C° 1.6 mm 1 mps 625 mmHg 95%
    Show more